Wind_Speed
101 96 92 89 81 73 69 70 66 63 54 51 43 39 35 31 29 19 25 30 30 31 27 27 26 28 28 28 27 27 27 26 25 25 23 23 21 18
107 101 97 93 79 74 78 75 68 64 59 54 47 46 41 36 32 24 23 31 32 31 30 30 28 28 28 28 28 27 27 26 26 25 23 22 19 17
115 106 101 95 94 82 77 75 73 67 63 61 58 52 50 41 35 30 22 27 34 33 32 32 31 31 31 31 31 29 29 26 26 26 25 24 21 17
119 113 107 101 99 98 86 82 79 72 71 64 63 55 51 47 42 35 30 24 35 38 37 34 34 33 33 33 34 34 33 28 26 27 26 24 25 22
118 120 115 107 104 98 91 83 78 78 82 72 67 61 55 54 45 37 32 31 29 39 41 40 39 37 38 37 36 38 37 33 31 29 28 28 27 26
115 117 120 113 106 103 93 89 85 80 77 73 71 64 56 52 48 43 34 31 32 31 42 43 43 42 40 38 36 38 40 40 38 36 32 31 31 31
115 115 119 116 112 104 99 93 94 90 81 74 76 70 62 57 50 48 44 40 36 35 39 46 46 46 44 42 40 40 42 45 45 42 38 36 32 31
116 114 118 119 114 112 104 99 100 97 91 87 82 72 63 63 57 51 47 44 41 38 33 43 47 46 51 47 47 47 47 48 47 45 43 40 37 36
117 115 119 121 118 115 112 111 103 94 92 90 80 73 68 67 60 52 49 48 44 42 42 37 48 52 51 52 53 52 52 50 50 47 46 45 44 42
116 118 118 120 120 113 117 119 112 106 99 95 88 70 73 72 61 55 56 43 57 47 39 34 44 46 52 51 50 53 53 52 51 49 48 49 50 47
118 120 120 121 120 119 114 115 112 114 99 99 91 72 77 74 66 58 60 58 61 51 43 38 38 52 47 49 51 53 56 56 55 53 50 50 52 51
115 124 123 125 121 115 116 114 112 114 105 103 93 81 73 71 64 65 63 61 58 51 48 45 40 36 53 50 49 46 45 49 56 57 54 54 55 52
116 122 126 127 126 123 113 111 111 114 109 103 96 90 75 73 68 70 69 64 61 54 55 53 51 41 35 46 52 48 45 45 42 45 52 54 54 53
115 119 127 132 133 131 124 116 112 116 115 106 102 98 89 77 74 72 74 70 70 58 57 51 56 51 46 43 43 45 46 47 47 44 45 49 50 51
114 119 126 132 138 134 130 129 122 112 122 112 106 101 93 86 83 79 76 75 69 65 63 57 55 53 58 53 49 53 49 49 49 49 45 42 44 47
103 116 121 132 140 137 136 132 127 125 121 118 113 106 103 97 92 86 80 76 80 77 70 63 66 62 55 56 58 57 54 57 56 49 43 38 34 32
84 100 119 125 138 144 141 137 134 130 129 129 120 117 109 103 98 93 91 87 81 84 81 70 72 73 69 61 61 60 57 62 60 51 39 37 33 32
74 81 99 119 131 139 146 145 139 136 136 129 129 119 117 111 100 96 95 94 93 91 87 83 78 76 76 73 69 68 66 68 66 57 50 44 43 41
64 74 80 96 119 132 142 146 144 141 141 142 129 127 123 113 109 110 101 101 100 95 97 86 83 82 79 80 79 68 68 74 73 61 56 52 44 44
54 62 72 80 95 118 131 136 146 144 147 145 143 132 127 124 121 116 107 103 109 102 100 89 91 90 85 85 84 78 75 72 72 69 58 55 54 54
47 53 60 72 80 93 115 129 137 145 146 149 147 143 137 132 126 122 119 111 113 111 111 102 101 98 97 88 93 88 86 79 79 78 73 66 61 61
40 47 54 62 72 81 92 113 131 139 142 147 145 147 148 144 138 132 126 126 121 118 116 111 106 102 104 97 94 96 92 89 85 84 81 79 77 79
39 40 47 54 62 72 82 93 110 126 134 135 136 142 140 140 135 141 138 132 128 127 133 117 113 108 112 110 101 106 101 98 98 94 90 87 86 84
Wind_Direction
208 211 209 207 205 201 206 207 212 211 209 220 221 225 231 228 232 235 226 226 226 223 217 224 224 226 226 228 230 232 234 239 242 243 246 252 250 248
206 209 212 208 200 201 202 205 209 218 214 217 220 220 224 230 231 230 231 229 224 223 219 219 224 227 226 226 231 232 233 235 237 242 243 243 239 227
207 207 211 210 200 195 201 206 208 214 218 218 221 223 221 220 228 229 226 229 224 216 222 220 224 225 226 228 228 231 231 234 236 237 238 235 235 218
206 207 209 210 206 205 210 208 207 214 219 219 217 221 220 216 220 222 229 227 225 217 216 221 223 226 226 229 229 229 231 231 235 234 236 240 230 224
205 208 209 210 209 208 211 211 208 209 216 222 222 219 219 220 217 221 231 235 232 228 221 219 222 224 225 227 230 229 231 233 236 236 235 238 234 227
205 209 210 209 209 209 210 213 208 208 213 215 221 226 221 217 215 214 222 236 237 232 230 226 224 226 229 230 229 233 233 235 236 236 235 236 237 238
206 207 209 209 209 211 210 215 212 212 214 214 222 223 224 222 218 214 225 234 239 242 237 232 227 226 228 229 229 233 234 236 237 238 237 239 240 242
206 207 208 208 211 212 210 214 212 215 215 217 222 222 218 219 218 216 222 228 238 243 243 235 230 229 227 228 229 231 235 238 239 239 243 244 245 245
206 207 208 209 212 214 214 215 214 217 221 221 218 216 215 215 216 221 220 228 234 240 244 246 234 231 231 230 231 234 237 239 242 242 244 245 245 246
208 208 208 208 212 214 216 216 217 220 222 221 220 214 213 216 214 217 217 212 232 233 242 247 238 235 234 234 233 234 239 243 246 245 245 248 248 249
209 209 209 207 212 214 217 217 217 218 220 220 219 213 211 215 218 213 219 222 223 231 237 246 249 236 236 235 236 239 241 241 242 245 245 247 248 249
211 209 209 208 210 212 214 215 218 218 219 221 216 213 213 217 217 212 220 216 225 226 230 243 244 243 236 238 239 242 246 250 250 250 250 249 250 251
212 210 209 208 208 210 211 213 216 219 220 217 215 217 217 218 221 212 215 223 226 230 237 244 241 240 250 245 244 248 251 253 250 248 248 249 251 253
213 214 210 210 210 210 214 213 215 221 218 217 219 218 218 220 225 219 218 228 229 230 229 233 226 235 246 246 246 247 248 249 251 254 253 248 246 249
216 215 214 212 209 212 212 217 217 220 217 219 215 216 219 223 226 230 224 221 225 230 229 230 220 230 236 242 250 251 247 253 254 254 256 254 250 248
218 216 216 214 212 213 213 217 219 218 218 218 220 222 224 226 223 227 230 227 228 227 230 234 231 234 237 235 238 244 252 257 258 258 253 251 252 247
221 218 217 218 215 214 216 215 218 219 222 224 223 227 225 224 225 223 229 231 229 228 232 237 236 240 237 234 236 235 243 253 254 253 242 241 244 244
222 221 218 218 219 218 216 219 220 219 221 223 225 224 221 223 226 225 226 229 231 232 234 235 237 241 235 235 235 234 237 241 247 245 241 233 237 231
221 222 221 217 218 218 220 219 221 220 220 223 225 226 226 227 226 227 228 231 232 232 231 236 236 237 238 235 231 235 233 236 243 246 249 238 244 250
228 223 222 220 218 218 220 222 220 222 221 222 224 225 228 230 228 228 228 231 232 232 233 237 235 238 238 236 230 230 230 230 237 240 242 248 253 255
226 230 224 222 221 219 219 220 223 222 222 223 224 224 227 231 228 230 231 231 232 234 238 238 237 237 238 239 233 233 230 229 234 234 240 246 250 255
235 228 229 225 223 222 220 219 221 224 226 224 225 227 227 230 232 234 234 235 234 237 236 240 239 239 237 241 237 233 231 231 236 233 237 244 250 257
244 238 231 230 227 225 223 223 221 223 224 228 227 226 227 230 230 233 235 235 236 237 241 242 239 238 241 241 241 235 233 237 240 242 240 245 247 250
Height
10523 10541 10561 10575 10586 10599 10609 10619 10629 10640 10653 10662 10668 10673 10682 10688 10693 10696 10699 10705 10711 10717 10721 10727 10732 10736 10739 10743 10746 10749 10753 10756 10759 10762 10763 10765 10765 10766
10507 10524 10543 10562 10575 10584 10596 10607 10618 10630 10640 10647 10657 10665 10672 10679 10684 10689 10692 10696 10703 10710 10715 10720 10725 10730 10733 10736 10740 10743 10746 10750 10753 10756 10758 10760 10761 10762
10490 10508 10525 10543 10560 10570 10580 10592 10605 10616 10627 10635 10645 10655 10665 10671 10676 10681 10683 10688 10695 10700 10707 10713 10718 10723 10727 10731 10734 10737 10741 10744 10747 10749 10752 10754 10756 10758
10473 10490 10506 10526 10542 10556 10566 10579 10591 10602 10615 10623 10633 10643 10653 10660 10666 10670 10675 10680 10685 10690 10697 10704 10710 10715 10719 10724 10728 10731 10735 10738 10741 10743 10746 10749 10751 10753
10455 10472 10489 10509 10524 10540 10553 10565 10577 10589 10603 10612 10622 10632 10640 10648 10655 10661 10667 10674 10677 10682 10688 10694 10701 10706 10710 10715 10719 10724 10728 10732 10735 10737 10740 10743 10745 10748
10437 10454 10473 10491 10508 10524 10538 10550 10561 10573 10586 10600 10609 10620 10630 10636 10643 10652 10659 10665 10669 10674 10680 10686 10690 10696 10701 10707 10712 10716 10720 10723 10726 10729 10732 10735 10738 10741
10419 10437 10456 10474 10491 10508 10522 10535 10548 10559 10571 10585 10596 10606 10618 10627 10635 10642 10648 10653 10659 10665 10671 10676 10680 10686 10691 10696 10701 10706 10709 10711 10715 10719 10723 10727 10730 10733
10403 10420 10439 10457 10473 10489 10506 10519 10533 10545 10556 10571 10584 10595 10606 10614 10624 10630 10638 10644 10653 10658 10661 10665 10670 10675 10679 10685 10689 10693 10697 10701 10705 10710 10715 10719 10722 10724
10384 10402 10421 10439 10455 10471 10487 10499 10517 10530 10542 10556 10572 10583 10591 10602 10611 10621 10627 10636 10642 10646 10651 10654 10660 10664 10667 10672 10677 10682 10686 10691 10695 10701 10706 10709 10712 10714
10368 10385 10402 10421 10437 10454 10469 10483 10500 10511 10527 10541 10560 10569 10578 10588 10600 10609 10617 10624 10630 10634 10642 10647 10651 10654 10657 10662 10666 10671 10676 10681 10686 10691 10695 10699 10701 10704
10349 10367 10384 10403 10419 10436 10452 10465 10480 10497 10511 10526 10546 10555 10564 10575 10584 10594 10605 10612 10621 10625 10632 10635 10638 10642 10646 10650 10655 10661 10665 10670 10674 10678 10683 10686 10689 10692
10333 10346 10364 10383 10401 10419 10434 10448 10465 10481 10496 10511 10528 10539 10547 10558 10568 10578 10588 10600 10608 10614 10620 10625 10628 10631 10637 10641 10644 10650 10655 10660 10663 10667 10671 10674 10676 10681
10312 10329 10348 10368 10383 10401 10415 10430 10446 10462 10479 10492 10506 10520 10531 10541 10553 10563 10575 10586 10594 10602 10606 10615 10619 10623 10628 10631 10635 10639 10643 10647 10651 10654 10657 10661 10665 10670
10295 10311 10331 10349 10365 10380 10396 10412 10429 10444 10460 10474 10488 10502 10513 10526 10537 10550 10560 10572 10581 10589 10594 10601 10607 10614 10618 10621 10623 10626 10631 10635 10639 10642 10644 10646 10650 10654
10280 10295 10311 10328 10346 10361 10377 10392 10409 10422 10437 10453 10468 10482 10495 10509 10522 10533 10543 10554 10565 10574 10583 10589 10595 10602 10608 10613 10613 10615 10617 10623 10626 10630 10631 10633 10636 10640
10261 10276 10290 10307 10325 10341 10357 10371 10389 10404 10416 10430 10446 10461 10475 10491 10504 10515 10525 10532 10547 10560 10569 10575 10582 10588 10595 10600 10604 10607 10607 10610 10612 10616 10619 10622 10625 10629
10242 10255 10271 10284 10301 10321 10336 10352 10366 10381 10394 10409 10423 10439 10454 10469 10483 10495 10507 10515 10528 10542 10551 10560 10567 10573 10580 10586 10591 10595 10600 10601 10604 10606 10608 10611 10615 10618
10222 10233 10248 10263 10279 10295 10312 10329 10344 10359 10373 10383 10400 10415 10431 10446 10460 10473 10486 10495 10507 10521 10531 10541 10549 10556 10562 10568 10575 10581 10587 10589 10591 10595 10598 10602 10603 10606
10204 10213 10225 10238 10252 10269 10284 10300 10318 10334 10348 10363 10374 10390 10405 10421 10436 10451 10464 10476 10487 10499 10511 10522 10531 10538 10545 10551 10557 10563 10569 10575 10579 10582 10585 10590 10594 10597
10189 10195 10205 10217 10229 10243 10257 10271 10290 10307 10323 10337 10353 10365 10379 10392 10410 10424 10441 10453 10465 10478 10489 10500 10511 10518 10525 10533 10540 10545 10550 10557 10563 10568 10571 10575 10579 10582
10179 10181 10188 10197 10208 10220 10234 10248 10263 10281 10294 10312 10327 10343 10359 10371 10383 10398 10415 10429 10443 10455 10465 10476 10487 10496 10504 10511 10520 10527 10530 10536 10543 10548 10555 10558 10562 10566
10166 10171 10174 10181 10190 10200 10210 10223 10237 10250 10264 10284 10299 10317 10332 10347 10359 10372 10388 10403 10416 10428 10439 10451 10462 10472 10481 10489 10497 10505 10510 10513 10520 10526 10532 10539 10545 10548
10154 10158 10163 10167 10174 10182 10192 10202 10213 10228 10242 10257 10273 10292 10307 10321 10335 10350 10362 10377 10388 10402 10413 10425 10435 10446 10455 10465 10472 10480 10487 10491 10498 10503 10509 10516 10522 10528